Winston-Salem, NC

4:02 AM EDT on May 30, 2017 (GMT -0400)
Smith Reynolds

Weather History for KINT - January, 2014

Change the Weather History Date:

Friday, January 24, 2014

  Actual Average Record
Temperature  
Mean Temperature 17 °F -  
Max Temperature 25 °F 45 °F 74 °F (1967)
Min Temperature 9 °F 28 °F 3 °F (1970)
Degree Days  
Heating Degree Days 48    
Moisture  
Dew Point -8 °F    
Average Humidity 34    
Maximum Humidity 48    
Minimum Humidity 20    
Precipitation  
Precipitation 0.00 in - - ()
Sea Level Pressure  
Sea Level Pressure 30.47 in    
Wind  
Wind Speed 8 mph (West)    
Max Wind Speed 14 mph    
Max Gust Speed 21 mph    
Visibility 10 miles    
Events      
Averages and records for this station are not official NWS values.
T = Trace of Precipitation, MM = Missing Value Source: NWS Daily Summary

Daily Weather History Graph

Daily Weather History Graph

Search for Another Location

Airport or City:

Trip Planner

Search our weather history database for the weather conditions in past years. The results will help you decide how hot, cold, wet, or windy it might be!

Date:

Astronomy

Jan. 24, 2014 Rise Set
Actual Time 7:27 AM EST 5:39 PM EST
Civil Twilight 6:59 AM EST 6:06 PM EST
Nautical Twilight 6:28 AM EST 6:37 PM EST
Astronomical Twilight 5:58 AM EST 7:08 PM EST
Moon 12:55 AM EST (1/24) 11:54 AM EST (1/24)
Length of Visible Light 11h 06m
Length of Day
10h 12m
Last Quarter, 45% of the Moon is Illuminated
Jan 24
Last Quarter
Jan 30
New
Feb 6
First Quarter
Feb 14
Full
Feb 22
Last Quarter

Hourly Weather History & Observations

Time (EST) Temp. Windchill Dew Point Humidity Pressure Visibility Wind Dir Wind Speed Gust Speed Precip Events Conditions
12:54 AM 15.1 °F 1.1 °F -6.0 °F 39% 30.48 in 10.0 mi NNW 12.7 mph - N/A   Clear
1:54 AM 14.0 °F 1.2 °F -6.0 °F 41% 30.50 in 10.0 mi NW 10.4 mph - N/A   Clear
2:54 AM 12.9 °F -2.2 °F -7.1 °F 41% 30.53 in 10.0 mi NNW 13.8 mph 20.7 mph N/A   Clear
3:54 AM 10.9 °F -3.4 °F -8.0 °F 42% 30.56 in 10.0 mi NNW 11.5 mph - N/A   Clear
4:54 AM 9.0 °F 0.6 °F -7.1 °F 48% 30.56 in 10.0 mi NNW 4.6 mph - N/A   Clear
5:54 AM 9.0 °F 0.6 °F -8.0 °F 46% 30.58 in 10.0 mi Variable 4.6 mph - N/A   Clear
6:54 AM 9.0 °F -0.9 °F -8.0 °F 46% 30.61 in 10.0 mi NW 5.8 mph - N/A   Clear
7:54 AM 9.0 °F - -8.0 °F 46% 30.61 in 10.0 mi Calm Calm - N/A   Clear
8:54 AM 10.9 °F -2.6 °F -7.1 °F 44% 30.62 in 10.0 mi NNW 10.4 mph - N/A   Clear
9:54 AM 15.1 °F 6.4 °F -6.0 °F 39% 30.60 in 10.0 mi North 5.8 mph - N/A   Clear
10:54 AM 16.0 °F 8.8 °F -7.1 °F 36% 30.60 in 10.0 mi NW 4.6 mph - N/A   Clear
11:54 AM 18.0 °F 11.1 °F -7.1 °F 33% 30.57 in 10.0 mi Variable 4.6 mph - N/A   Clear
12:54 PM 19.9 °F 14.9 °F -9.0 °F 27% 30.52 in 10.0 mi Variable 3.5 mph - N/A   Clear
1:54 PM 21.9 °F 13.4 °F -9.0 °F 25% 30.49 in 10.0 mi West 6.9 mph - N/A   Clear
2:54 PM 24.1 °F 17.0 °F -11.0 °F 21% 30.44 in 10.0 mi NNW 5.8 mph - N/A   Clear
3:54 PM 25.0 °F 18.1 °F -11.0 °F 20% 30.41 in 10.0 mi SSW 5.8 mph - N/A   Clear
4:54 PM 24.1 °F 18.2 °F -11.0 °F 21% 30.39 in 10.0 mi SSW 4.6 mph - N/A   Clear
5:54 PM 23.0 °F 17.0 °F -9.9 °F 23% 30.38 in 10.0 mi SSW 4.6 mph - N/A   Clear
6:54 PM 21.9 °F 14.5 °F -9.0 °F 25% 30.36 in 10.0 mi South 5.8 mph - N/A   Clear
7:54 PM 21.0 °F 14.6 °F -8.0 °F 28% 30.33 in 10.0 mi South 4.6 mph - N/A   Clear
8:54 PM 21.0 °F 13.4 °F -8.0 °F 28% 30.31 in 10.0 mi South 5.8 mph - N/A   Clear
9:54 PM 21.0 °F 13.4 °F -8.0 °F 28% 30.27 in 10.0 mi SSW 5.8 mph - N/A   Clear
10:54 PM 19.9 °F 13.4 °F -8.0 °F 29% 30.26 in 10.0 mi SSW 4.6 mph - N/A   Clear
11:54 PM 19.9 °F 12.1 °F -7.1 °F 30% 30.23 in 10.0 mi SW 5.8 mph - N/A   Clear